STARLINK-5185 (54100 NORAD) Tracking and Keplerian Element Data

This shows tracking and keplerian element data for the satellite.

Feedback or suggestion? Click here.




ElementValue
Catalog54100
NameSTARLINK-5185
Epoch Orbit549
Epoch Day325.33334491
Epoch Year2022
RAAN350.8809
Inclination53.215
Eccentricity0.000334
Argument of Perigee8.6312
Mean Anonmoly344.019
Mean Motion15.73185874
Decay Rate-0.00092315
L11 54100U 22136BB 22325.33334491 -.00092315 00000+0 -66070-3 0 9991
L22 54100 53.2150 350.8809 0003340 8.6312 344.0190 15.73185874 5499



Live tracking and technical data element details for STARLINK-5185 (NORAD 54100). STARLINK-5185 can be tracked NOW for your location showing map with azimuth and elevation plus other details from your city location.







IsCatalogInMostPopularTable: catalog: 54100, numindb: 1
Update: records affected: 1



GetName: 54100 STARLINK-5185

Hit Count: updated at: Mon, 28 Nov 2022 22:21:13 GMT